Temp
-12 -12 -12 -13 -13 -12 -12 -12 -11 -12 -12 -12 -12 -11 -11 -11 -11 -11 -12 -11 -11 -11 -11 -11 -11 -10 -10 -10 -10 -10 -10 -11 -11 -11 -11 -11 -11 -12 -12 -12 -12 -12 -13 -13
-12 -12 -13 -13 -13 -13 -12 -12 -12 -13 -12 -12 -12 -11 -11 -11 -11 -12 -12 -12 -11 -11 -11 -11 -11 -11 -10 -10 -10 -11 -11 -11 -11 -11 -12 -12 -12 -12 -12 -12 -13 -13 -13 -13
-12 -12 -12 -13 -13 -13 -13 -13 -13 -13 -13 -12 -12 -11 -11 -11 -11 -11 -12 -12 -11 -11 -11 -11 -11 -11 -11 -11 -11 -11 -11 -11 -12 -12 -12 -13 -13 -13 -13 -13 -13 -13 -13 -14
-13 -13 -12 -13 -13 -13 -13 -13 -13 -13 -13 -12 -12 -9 -11 -11 -11 -12 -12 -12 -11 -11 -11 -11 -11 -11 -11 -11 -11 -11 -12 -12 -12 -12 -12 -13 -13 -13 -13 -13 -14 -14 -14 -14
-12 -12 -12 -12 -13 -13 -13 -13 -13 -13 -13 -12 -12 -11 -10 -11 -11 -12 -11 -11 -11 -12 -11 -11 -11 -11 -11 -12 -12 -12 -12 -12 -13 -13 -13 -13 -14 -14 -14 -14 -14 -14 -14 -14
-12 -12 -12 -12 -12 -13 -13 -13 -13 -13 -13 -11 -12 -12 -9 -10 -11 -12 -12 -12 -12 -12 -12 -12 -12 -12 -12 -12 -12 -12 -13 -13 -13 -13 -14 -14 -14 -14 -14 -14 -14 -15 -15 -15
-14 -13 -13 -13 -13 -13 -13 -13 -13 -13 -13 -11 -12 -12 -10 -11 -12 -12 -12 -12 -12 -12 -12 -12 -12 -12 -12 -13 -13 -13 -13 -13 -14 -14 -14 -14 -15 -15 -15 -15 -15 -15 -15 -16
-13 -13 -13 -13 -13 -14 -13 -13 -13 -13 -13 -12 -12 -11 -11 -12 -12 -13 -13 -12 -12 -12 -13 -13 -13 -13 -13 -13 -14 -14 -14 -14 -15 -15 -15 -15 -15 -15 -15 -16 -16 -16 -16 -16
-14 -13 -13 -13 -14 -14 -13 -12 -14 -14 -14 -13 -12 -12 -11 -12 -13 -13 -13 -13 -13 -13 -13 -13 -13 -14 -14 -14 -14 -14 -15 -15 -15 -15 -15 -15 -15 -15 -16 -16 -16 -17 -17 -17
-14 -14 -13 -13 -14 -14 -13 -14 -14 -14 -14 -13 -12 -12 -12 -12 -12 -13 -13 -14 -14 -14 -14 -13 -14 -14 -14 -15 -15 -15 -15 -16 -16 -16 -16 -16 -16 -16 -16 -17 -17 -18 -18 -18
-14 -14 -13 -14 -13 -14 -14 -14 -14 -14 -14 -14 -13 -12 -12 -12 -13 -13 -14 -14 -14 -14 -14 -14 -14 -14 -15 -15 -15 -16 -16 -16 -16 -16 -16 -16 -17 -17 -17 -18 -18 -18 -18 -18
-15 -15 -14 -14 -14 -14 -14 -14 -14 -14 -14 -14 -14 -13 -13 -12 -13 -13 -13 -14 -14 -14 -14 -14 -15 -15 -15 -16 -16 -16 -16 -16 -16 -17 -17 -17 -18 -18 -18 -18 -18 -18 -19 -19
-15 -15 -15 -15 -14 -14 -14 -14 -14 -15 -15 -14 -15 -13 -14 -14 -14 -14 -15 -15 -15 -15 -15 -15 -16 -16 -17 -17 -17 -17 -17 -17 -17 -17 -18 -18 -18 -19 -19 -19 -19 -19 -19 -19
-16 -16 -15 -15 -15 -15 -15 -15 -15 -16 -16 -13 -14 -14 -15 -15 -15 -15 -15 -15 -15 -15 -15 -16 -17 -17 -18 -18 -18 -18 -18 -18 -18 -18 -18 -19 -19 -19 -19 -19 -19 -19 -20 -20
-16 -16 -16 -16 -16 -16 -15 -15 -16 -15 -14 -16 -14 -16 -16 -16 -16 -16 -16 -15 -15 -16 -16 -17 -17 -17 -18 -18 -18 -18 -18 -18 -19 -19 -19 -19 -20 -19 -19 -19 -19 -20 -21 -21
-17 -16 -17 -16 -16 -16 -16 -16 -16 -15 -15 -16 -15 -16 -16 -16 -17 -16 -17 -17 -17 -17 -18 -17 -17 -17 -18 -18 -19 -19 -19 -19 -19 -20 -20 -20 -20 -20 -20 -21 -22 -22 -23 -23
-17 -17 -17 -17 -17 -17 -17 -15 -16 -16 -16 -16 -16 -16 -17 -17 -17 -17 -17 -17 -18 -18 -18 -18 -18 -19 -19 -19 -19 -20 -20 -20 -21 -21 -20 -20 -21 -21 -22 -23 -24 -24 -24 -25
-18 -17 -17 -18 -17 -17 -16 -16 -16 -17 -16 -17 -17 -17 -17 -18 -18 -18 -18 -18 -19 -19 -19 -19 -19 -19 -20 -20 -20 -20 -20 -21 -21 -21 -21 -22 -23 -24 -24 -25 -25 -25 -25 -25
-18 -18 -18 -18 -18 -18 -17 -17 -17 -17 -17 -18 -18 -18 -18 -18 -18 -18 -19 -19 -19 -19 -20 -20 -20 -20 -20 -20 -21 -21 -21 -22 -22 -23 -24 -24 -25 -25 -25 -26 -26 -26 -26 -26
-19 -19 -19 -19 -19 -19 -18 -18 -18 -18 -18 -18 -18 -18 -19 -19 -19 -20 -19 -20 -20 -20 -20 -20 -20 -21 -21 -22 -22 -22 -23 -23 -24 -25 -25 -25 -26 -26 -26 -27 -27 -27 -27 -28
-19 -20 -20 -20 -20 -19 -20 -19 -19 -19 -19 -19 -19 -19 -19 -19 -20 -20 -20 -20 -20 -20 -21 -21 -21 -22 -22 -23 -23 -23 -24 -25 -25 -25 -26 -26 -26 -27 -27 -28 -27 -28 -28 -29
-21 -21 -20 -21 -22 -21 -20 -20 -20 -20 -20 -20 -20 -20 -20 -20 -21 -20 -21 -21 -21 -21 -21 -21 -22 -22 -23 -24 -24 -25 -25 -25 -26 -26 -26 -27 -27 -28 -28 -28 -28 -29 -30 -31
-21 -21 -22 -22 -22 -21 -21 -21 -21 -21 -21 -21 -20 -20 -20 -21 -21 -22 -22 -22 -22 -22 -22 -22 -23 -24 -24 -25 -25 -25 -26 -26 -26 -27 -27 -28 -28 -28 -29 -29 -30 -31 -32 -32
-22 -23 -23 -23 -22 -23 -23 -23 -22 -22 -22 -22 -21 -21 -22 -22 -21 -22 -22 -23 -23 -23 -24 -24 -25 -25 -25 -26 -26 -26 -27 -27 -27 -28 -28 -28 -29 -29 -30 -31 -32 -32 -33 -33
-23 -23 -23 -23 -24 -24 -24 -23 -23 -23 -23 -23 -22 -22 -22 -22 -22 -23 -23 -24 -24 -25 -25 -25 -26 -26 -26 -27 -27 -27 -27 -28 -28 -29 -29 -29 -30 -31 -31 -32 -33 -34 -34 -35
-23 -24 -24 -24 -24 -24 -24 -24 -24 -24 -24 -24 -24 -24 -24 -24 -24 -24 -25 -25 -25 -25 -26 -26 -27 -27 -27 -27 -27 -28 -29 -29 -29 -29 -30 -31 -31 -32 -33 -33 -34 -35 -35 -36
Height
5796 5795 5800 5799 5797 5797 5795 5795 5796 5798 5795 5793 5792 5792 5792 5793 5794 5795 5794 5794 5794 5794 5793 5793 5792 5792 5792 5792 5791 5791 5791 5791 5791 5791 5790 5790 5790 5790 5789 5788 5787 5786 5785 5784
5789 5787 5791 5788 5789 5788 5787 5788 5788 5788 5786 5784 5784 5783 5785 5779 5787 5787 5786 5785 5785 5785 5785 5784 5784 5784 5784 5784 5784 5783 5783 5783 5782 5782 5782 5782 5782 5782 5782 5782 5781 5779 5777 5776
5779 5780 5778 5780 5781 5779 5779 5778 5779 5777 5773 5775 5774 5772 5776 5774 5778 5779 5778 5776 5776 5777 5776 5776 5776 5775 5775 5775 5775 5775 5775 5774 5773 5773 5773 5772 5772 5772 5772 5772 5772 5771 5769 5768
5766 5769 5766 5769 5769 5770 5769 5769 5767 5767 5764 5764 5763 5758 5764 5765 5771 5771 5769 5767 5767 5768 5768 5768 5768 5768 5768 5768 5767 5767 5767 5767 5766 5765 5765 5765 5764 5763 5762 5761 5761 5760 5759 5758
5758 5756 5756 5755 5758 5758 5759 5757 5756 5756 5755 5753 5754 5751 5754 5758 5760 5761 5760 5760 5759 5759 5760 5760 5760 5760 5760 5760 5759 5759 5759 5759 5758 5758 5757 5756 5756 5755 5755 5754 5752 5750 5748 5746
5743 5741 5743 5745 5747 5747 5745 5745 5744 5745 5745 5741 5743 5745 5746 5746 5751 5751 5751 5751 5751 5751 5751 5751 5751 5752 5752 5751 5751 5751 5751 5750 5750 5749 5748 5746 5745 5744 5743 5742 5741 5739 5737 5736
5730 5730 5730 5731 5733 5734 5736 5736 5734 5733 5730 5732 5733 5733 5740 5736 5739 5741 5742 5743 5743 5743 5743 5742 5742 5742 5742 5742 5741 5741 5740 5740 5740 5739 5738 5737 5736 5734 5732 5730 5728 5725 5724 5722
5716 5717 5720 5723 5724 5724 5722 5722 5722 5720 5720 5723 5724 5724 5727 5729 5730 5730 5732 5733 5733 5733 5733 5733 5734 5734 5734 5733 5732 5732 5731 5730 5729 5728 5728 5727 5725 5722 5720 5719 5716 5713 5708 5706
5706 5707 5707 5712 5711 5712 5713 5711 5717 5712 5713 5712 5712 5716 5719 5720 5722 5722 5723 5723 5723 5724 5724 5724 5724 5723 5723 5723 5722 5721 5720 5720 5719 5718 5716 5715 5713 5710 5707 5703 5699 5696 5695 5692
5696 5695 5697 5699 5700 5701 5702 5707 5705 5704 5704 5704 5705 5706 5709 5712 5711 5712 5713 5713 5714 5715 5716 5715 5714 5714 5713 5712 5711 5710 5709 5707 5706 5705 5703 5701 5698 5695 5692 5688 5686 5683 5680 5677
5686 5685 5687 5690 5691 5694 5695 5695 5695 5695 5695 5693 5695 5700 5701 5700 5701 5702 5703 5704 5704 5705 5705 5705 5705 5703 5702 5700 5699 5698 5697 5696 5694 5692 5690 5687 5684 5681 5678 5675 5672 5669 5665 5662
5676 5672 5674 5679 5681 5681 5682 5684 5682 5681 5684 5686 5686 5691 5689 5689 5690 5692 5692 5693 5694 5694 5693 5693 5692 5690 5690 5688 5687 5685 5684 5682 5680 5678 5674 5671 5668 5665 5663 5660 5658 5654 5649 5644
5662 5659 5661 5664 5668 5667 5669 5674 5675 5674 5672 5676 5672 5680 5676 5679 5679 5678 5679 5680 5681 5680 5680 5679 5678 5678 5677 5675 5673 5671 5670 5667 5665 5662 5660 5657 5654 5651 5648 5645 5641 5636 5631 5625
5645 5644 5648 5653 5656 5653 5656 5659 5660 5659 5658 5666 5662 5667 5664 5665 5665 5665 5666 5666 5665 5666 5666 5666 5666 5665 5663 5661 5659 5657 5655 5653 5651 5648 5645 5642 5639 5636 5632 5628 5623 5617 5611 5604
5629 5629 5634 5639 5638 5637 5641 5644 5644 5643 5652 5644 5658 5648 5650 5651 5651 5651 5652 5653 5654 5652 5653 5652 5651 5650 5648 5647 5644 5642 5641 5638 5634 5632 5629 5626 5622 5617 5613 5608 5602 5596 5589 5583
5615 5615 5618 5620 5624 5621 5623 5628 5631 5632 5635 5632 5639 5637 5637 5638 5639 5638 5639 5638 5639 5639 5638 5637 5636 5635 5633 5631 5629 5628 5626 5622 5619 5616 5612 5607 5603 5598 5592 5586 5581 5575 5568 5562
5602 5604 5604 5603 5607 5604 5600 5619 5616 5619 5620 5621 5619 5628 5623 5621 5623 5623 5623 5624 5626 5625 5623 5622 5622 5622 5619 5618 5614 5612 5608 5606 5603 5598 5594 5589 5584 5577 5572 5567 5561 5555 5548 5541
5589 5590 5589 5587 5588 5582 5594 5600 5603 5601 5604 5605 5606 5608 5608 5607 5607 5608 5609 5609 5610 5609 5608 5607 5606 5605 5604 5602 5598 5595 5593 5589 5585 5580 5575 5570 5565 5559 5554 5549 5542 5535 5529 5520
5575 5576 5574 5572 5573 5575 5577 5584 5584 5584 5591 5590 5592 5592 5591 5592 5592 5596 5595 5595 5595 5594 5593 5593 5591 5590 5588 5585 5581 5580 5576 5571 5566 5562 5557 5551 5546 5541 5536 5529 5522 5516 5509 5500
5561 5561 5561 5560 5558 5560 5569 5569 5567 5568 5572 5577 5574 5576 5576 5576 5578 5583 5579 5579 5579 5579 5577 5575 5574 5571 5570 5567 5564 5560 5557 5553 5548 5543 5537 5534 5529 5522 5516 5509 5504 5497 5489 5481
5547 5546 5546 5545 5543 5546 5556 5555 5553 5556 5565 5560 5559 5562 5563 5565 5564 5565 5565 5563 5563 5562 5560 5558 5556 5554 5552 5549 5546 5542 5538 5535 5530 5525 5521 5516 5509 5504 5497 5491 5485 5478 5470 5462
5534 5532 5533 5533 5531 5533 5545 5540 5542 5541 5541 5544 5545 5548 5549 5549 5549 5547 5547 5547 5547 5545 5544 5541 5538 5536 5534 5531 5528 5525 5521 5515 5512 5508 5504 5497 5492 5486 5480 5474 5468 5460 5453 5446
5516 5518 5520 5520 5521 5520 5521 5522 5524 5523 5524 5527 5533 5534 5534 5533 5532 5532 5531 5531 5530 5528 5526 5523 5520 5517 5516 5513 5510 5506 5502 5499 5496 5491 5486 5481 5476 5470 5465 5458 5450 5443 5436 5429
5502 5503 5503 5505 5507 5506 5506 5507 5508 5509 5512 5514 5516 5518 5519 5517 5516 5514 5513 5512 5510 5509 5507 5505 5503 5501 5499 5496 5493 5491 5487 5482 5478 5474 5469 5465 5460 5454 5447 5440 5433 5427 5421 5414
5490 5489 5491 5489 5490 5489 5488 5489 5491 5495 5498 5499 5501 5502 5503 5503 5500 5498 5496 5495 5493 5491 5490 5488 5486 5485 5483 5480 5477 5474 5469 5465 5461 5457 5452 5447 5442 5436 5430 5424 5418 5412 5406 5399
5474 5473 5471 5472 5470 5470 5472 5475 5476 5481 5481 5481 5484 5485 5485 5485 5483 5481 5479 5476 5477 5476 5474 5471 5470 5468 5464 5461 5459 5456 5451 5447 5444 5439 5435 5431 5426 5421 5415 5410 5404 5398 5392 5385
Wind_Speed
41 43 35 33 38 38 41 40 38 34 37 38 39 40 41 39 37 35 35 35 35 34 35 35 35 34 32 31 30 29 29 29 30 32 32 32 32 33 33 34 34 35 35 35
40 41 35 37 38 40 40 41 42 39 41 43 44 45 42 47 37 38 38 39 38 37 38 38 37 34 32 31 31 31 31 30 30 30 30 30 32 33 34 35 36 38 39 40
47 45 46 43 41 45 45 45 42 46 47 45 47 49 47 47 39 36 38 37 38 37 35 33 33 32 32 32 32 32 32 31 31 32 33 33 34 35 36 37 39 40 41 42
49 50 53 47 48 48 50 48 50 48 49 48 49 45 44 44 37 36 39 39 36 35 34 34 33 33 33 33 32 31 32 33 35 37 38 38 39 40 40 39 39 40 41 42
52 52 54 54 52 52 52 53 52 49 51 52 50 50 43 41 38 34 38 38 34 33 33 33 34 35 34 33 32 33 35 37 38 40 40 41 41 42 42 42 42 44 47 48
52 52 53 52 50 50 50 50 51 51 50 53 52 50 45 44 37 35 35 34 34 37 37 36 36 35 34 34 34 35 36 38 40 41 42 43 43 44 45 46 49 51 54 56
51 53 52 50 52 51 49 49 48 51 55 52 50 49 41 42 35 33 31 33 34 35 35 35 35 34 34 35 35 36 38 40 41 43 44 46 48 49 51 53 54 55 57 59
48 49 45 46 44 43 47 46 48 50 52 50 46 46 44 38 36 35 33 32 31 32 33 34 34 34 35 36 37 38 40 42 44 46 48 50 53 55 56 58 60 62 62 63
42 42 44 41 43 44 45 46 36 41 42 45 46 42 40 38 35 33 33 32 31 32 33 33 35 38 38 40 41 43 45 47 48 49 51 53 55 57 60 62 62 64 67 68
40 42 39 39 40 42 43 39 41 43 44 43 43 43 40 38 39 38 36 35 34 34 35 38 40 41 43 45 46 46 46 48 49 50 52 55 57 60 63 64 66 65 66 70
40 45 46 42 41 39 41 41 41 43 44 45 45 42 40 41 42 41 40 40 39 39 39 41 44 45 47 47 48 49 50 51 52 54 56 58 61 63 64 65 66 67 68 72
43 47 49 47 46 46 48 48 51 51 49 47 47 45 46 47 46 45 44 42 41 42 44 44 47 46 46 48 49 50 51 52 55 57 58 61 62 63 65 68 70 72 73 76
50 50 50 52 50 51 51 51 52 52 52 50 51 45 52 50 50 50 48 46 46 46 45 45 47 48 48 49 51 53 54 55 56 58 61 62 63 65 66 69 72 76 78 81
50 51 55 54 52 56 52 49 48 50 51 48 51 50 52 52 53 53 52 52 52 50 48 47 47 49 50 52 53 53 54 56 60 61 62 63 64 68 70 73 76 78 81 84
52 55 53 52 50 50 51 50 50 55 51 60 52 54 52 53 55 56 56 55 51 53 48 49 50 52 54 58 57 57 59 59 60 62 64 68 70 72 74 77 81 84 85 86
55 58 55 51 51 55 57 51 53 56 56 61 59 59 60 60 57 57 55 56 55 51 52 54 54 55 57 60 60 60 60 63 65 66 68 70 73 77 79 81 83 83 84 85
55 56 56 60 57 58 62 57 54 54 55 57 59 56 55 53 54 53 54 54 51 54 56 57 58 60 59 59 61 64 67 65 65 69 72 76 78 80 80 80 79 80 82 83
46 48 46 50 56 63 64 62 59 58 59 57 53 50 52 52 54 53 53 54 54 56 57 59 58 53 56 60 64 66 64 65 71 75 77 77 78 78 76 77 77 79 82 86
54 61 60 54 54 55 57 56 54 57 56 54 52 53 54 55 57 56 54 53 54 57 55 51 52 55 57 59 62 65 68 71 74 74 74 74 73 73 74 75 77 81 84 85
52 51 52 51 45 43 39 40 47 48 49 49 53 53 51 49 51 48 50 49 49 51 54 56 58 60 62 61 63 67 70 71 70 69 71 69 71 73 74 76 78 79 79 79
60 51 44 45 45 51 46 47 53 53 49 51 51 51 50 51 52 51 52 55 58 60 61 61 59 58 61 63 65 67 66 65 66 68 68 69 70 72 74 72 73 75 75 75
51 44 43 49 58 63 51 52 56 57 56 55 53 53 53 55 58 60 62 62 63 64 63 65 64 64 64 65 64 64 64 65 65 67 67 69 71 69 67 69 70 71 71 70
69 66 59 58 62 62 59 56 65 69 67 66 65 66 67 65 63 63 62 62 63 64 65 66 66 65 62 61 60 60 61 62 63 64 66 65 64 64 65 66 67 67 67 67
62 59 55 55 58 58 58 57 58 60 63 65 63 62 62 63 63 62 61 61 62 62 62 61 60 58 56 56 56 58 59 61 62 61 60 61 60 61 62 63 64 64 64 64
62 59 58 59 57 58 58 58 58 58 58 59 60 60 61 60 61 62 61 60 59 55 53 53 52 52 54 55 56 58 60 59 57 58 58 57 57 58 59 61 61 61 62 62
52 52 56 55 55 57 56 54 55 54 54 56 55 54 54 53 54 54 53 54 52 51 52 52 52 52 54 56 57 55 53 55 56 55 55 55 56 57 58 58 58 59 59 60
Wind_Direction
271 267 280 273 267 274 273 275 273 274 271 270 270 269 273 269 275 277 276 276 274 272 271 273 275 278 276 275 274 274 272 271 272 272 272 271 271 269 270 271 273 276 276 276
272 273 274 272 270 271 276 276 270 271 271 265 266 268 268 273 271 276 277 274 271 271 274 271 272 270 270 271 271 272 273 274 275 275 275 273 271 271 272 273 273 274 275 276
270 272 268 271 271 274 275 278 276 267 267 266 269 270 267 267 269 274 275 275 271 270 274 269 266 265 266 268 270 271 272 274 275 276 275 273 272 272 273 273 273 274 274 275
266 263 269 269 269 269 271 272 271 267 264 269 271 272 270 268 267 271 270 272 273 267 269 268 267 267 269 270 271 272 274 275 276 276 276 277 276 276 275 273 273 274 275 278
268 269 263 267 273 269 270 268 270 266 263 267 269 273 274 271 270 270 271 272 267 265 267 267 269 270 272 273 273 274 274 273 273 272 272 272 273 274 275 276 276 278 279 279
266 264 266 265 265 267 267 265 265 264 263 265 269 273 272 273 275 271 270 267 267 268 270 269 269 268 271 273 274 273 272 270 270 270 271 270 270 271 273 275 276 278 278 279
260 260 262 260 264 264 265 267 267 263 263 266 273 272 271 273 275 271 270 270 270 269 268 266 267 271 272 271 270 269 269 268 268 269 270 271 272 273 274 275 275 276 278 279
258 258 260 261 262 264 259 258 258 259 264 269 269 268 271 271 274 277 275 273 272 270 269 268 270 271 270 269 268 268 268 267 267 269 271 273 274 276 278 280 281 281 280 281
258 258 261 257 255 257 260 261 264 262 263 266 266 269 269 272 275 274 273 275 273 273 271 270 270 270 270 268 268 268 269 270 272 274 275 277 279 281 281 280 280 280 283 285
254 257 254 253 253 253 259 258 259 260 263 268 271 272 276 278 276 277 276 276 275 276 278 274 274 276 273 271 270 271 271 273 276 278 279 279 279 280 279 279 283 286 287 287
254 251 255 254 256 257 257 258 261 263 262 265 269 277 279 276 276 277 278 279 279 279 276 274 274 274 273 272 272 274 276 280 283 283 284 282 282 283 284 286 287 288 288 287
256 252 252 254 257 256 254 255 256 257 261 263 268 268 274 277 275 275 276 280 279 278 278 276 273 272 275 275 278 280 282 284 284 285 286 286 286 285 285 286 286 286 286 286
253 254 255 253 255 257 258 259 263 263 259 262 262 270 275 276 275 277 277 276 275 276 274 272 273 276 280 281 283 285 285 285 286 285 284 284 284 285 286 286 286 286 287 288
254 255 256 254 257 257 260 261 259 258 257 261 263 271 270 270 270 273 273 274 274 276 274 278 281 283 284 283 283 284 286 286 286 284 284 285 286 286 286 287 288 288 288 288
252 255 257 254 254 263 256 259 256 255 262 257 267 265 264 263 266 267 269 274 274 273 274 278 280 282 283 283 283 283 283 284 284 286 287 287 287 288 289 288 287 287 288 290
260 259 261 262 259 257 258 256 257 259 257 259 264 263 266 269 271 270 272 272 271 271 273 275 277 278 278 278 278 281 284 286 288 288 287 288 288 287 287 287 287 289 291 291
258 261 261 262 259 255 255 254 260 264 262 260 260 265 265 266 266 267 268 270 268 267 271 275 276 275 276 275 278 279 282 286 287 287 287 286 286 287 287 289 291 292 294 294
255 257 255 260 255 256 260 260 258 254 256 257 259 262 263 263 267 269 269 270 269 269 271 273 275 274 276 277 278 281 285 288 287 285 284 285 286 288 290 291 294 294 294 295
252 254 255 256 256 258 257 261 259 258 255 256 258 260 263 266 266 265 267 268 267 268 272 272 272 275 279 280 283 287 285 281 281 283 285 286 288 290 292 292 293 293 294 295
244 245 249 263 262 268 267 266 262 263 261 263 261 262 260 259 262 265 265 266 265 268 274 280 282 282 285 284 280 278 280 282 283 283 284 287 289 291 291 291 293 294 295 296
251 259 259 265 262 259 272 272 269 262 263 259 259 262 262 265 268 269 269 274 281 285 287 289 287 283 279 278 278 280 281 281 281 284 286 288 288 288 289 291 293 295 297 298
250 247 247 260 271 273 267 263 261 261 259 260 264 268 271 272 276 278 282 286 286 285 285 284 282 279 277 278 279 281 281 281 283 283 285 286 285 287 290 293 295 296 298 298
266 269 272 272 275 276 275 271 263 266 271 273 274 275 278 283 285 287 285 283 281 279 276 276 276 278 280 281 280 279 279 280 282 282 281 282 284 288 291 293 295 297 299 300
263 266 265 267 269 268 267 268 267 266 272 277 278 278 280 281 282 282 281 279 278 277 276 277 278 279 278 277 277 279 280 280 279 279 280 283 287 291 293 295 296 298 300 303
262 263 266 267 268 267 266 267 267 269 272 273 274 274 275 276 275 274 274 275 276 277 278 278 278 277 278 279 279 280 279 278 279 281 284 288 291 292 294 295 298 300 303 306
266 266 265 264 263 263 264 265 268 269 267 268 270 271 271 271 271 273 275 276 278 279 279 279 279 278 278 279 282 280 277 279 282 285 288 290 291 292 295 297 300 304 307 310